Location: Muck Cross
(36.7179°N, 78.3678°W)
Time: 12:55:53
(UTC+00:00)

Tiangong - Visible Passes

Search period start: 29 January 2023 00:00
Search period end: 08 February 2023 00:00
Orbit: 383 x 386 km, 41.5° (Epoch: 29 January)

Date Brightness Start Highest point End Pass type
(mag) Time Alt. Az. Time Alt. Az. Time Alt. Az.
29 Jan -2.1 00:01:52 10° WNW 00:05:01 72° SSW 00:05:31 57° SE visible
29 Jan -2.1 23:02:18 10° WNW 23:05:28 69° NNE 23:08:37 10° ESE visible
30 Jan 0.3 00:39:36 10° W 00:41:35 20° SW 00:41:35 20° SW visible
30 Jan -0.8 23:39:40 10° W 23:42:39 38° SSW 23:45:33 10° SE visible
01 Feb 1.0 00:18:27 10° WSW 00:19:32 11° SW 00:20:36 10° SSW visible
01 Feb 0.5 23:17:38 10° W 23:20:05 21° SW 23:22:33 10° SSE visible
